| time (UTC) | temp F | wind direction | speed knots | gust knots | rain 1hr in | rain 24hr in | rain mn in | humidity % | barometer mb |
| 20260508104648 | 46 | 331 | 1.7 | 8.7 | 0.00 | 0.00 | 0.00 | 73 | 1017.8 |
| 20260508103110 | 48 | 122 | 0.9 | 3.5 | 0.00 | 0.00 | 0.00 | 67 | 1017.9 |
| 20260508100032 | 51 | 132 | 1.7 | 3.5 | 0.00 | 0.00 | 0.00 | 63 | 1017.9 |
| 20260508094537 | 52 | 259 | 0.9 | 5.2 | 0.00 | 0.00 | 0.00 | 61 | 1017.8 |
| 20260508093035 | 52 | 308 | 3.5 | 7.8 | 0.00 | 0.00 | 0.00 | 60 | 1017.8 |
| 20260508091535 | 52 | 289 | 2.6 | 8.7 | 0.00 | 0.00 | 0.00 | 61 | 1017.7 |
| 20260508090036 | 50 | 288 | 2.6 | 7.8 | 0.00 | 0.00 | 0.00 | 64 | 1017.6 |
| 20260508084532 | 49 | 250 | 0.9 | 5.2 | 0.00 | 0.00 | 0.00 | 63 | 1017.6 |
| 20260508083107 | 50 | 316 | 0.0 | 3.5 | 0.00 | 0.00 | 0.00 | 60 | 1017.6 |
| 20260508081534 | 51 | 325 | 1.7 | 5.2 | 0.00 | 0.00 | 0.00 | 57 | 1017.7 |
| 20260508080036 | 53 | 308 | 1.7 | 4.3 | 0.00 | 0.00 | 0.00 | 53 | 1017.7 |
| 20260508074537 | 55 | 315 | 1.7 | 6.1 | 0.00 | 0.00 | 0.00 | 48 | 1017.7 |
| 20260508073036 | 57 | 324 | 2.6 | 5.2 | 0.00 | 0.00 | 0.00 | 44 | 1017.7 |
| 20260508071536 | 58 | 269 | 3.5 | 6.1 | 0.00 | 0.00 | 0.00 | 44 | 1017.6 |
| 20260508070031 | 58 | 275 | 3.5 | 8.7 | 0.00 | 0.00 | 0.00 | 44 | 1017.6 |
| 20260508064530 | 58 | 269 | 3.5 | 9.6 | 0.00 | 0.00 | 0.00 | 44 | 1017.6 |
| 20260508063030 | 59 | 269 | 3.5 | 8.7 | 0.00 | 0.00 | 0.00 | 44 | 1017.6 |
| 20260508061532 | 59 | 277 | 3.5 | 9.6 | 0.00 | 0.00 | 0.00 | 44 | 1017.6 |
| 20260508060029 | 60 | 282 | 3.5 | 9.6 | 0.00 | 0.00 | 0.00 | 43 | 1017.6 |
| 20260508054534 | 61 | 286 | 3.5 | 10.4 | 0.00 | 0.00 | 0.00 | 41 | 1017.6 |
| 20260508053031 | 61 | 282 | 5.2 | 14.8 | 0.00 | 0.00 | 0.00 | 41 | 1017.6 |
| 20260508051534 | 61 | 282 | 6.1 | 13.0 | 0.00 | 0.00 | 0.00 | 42 | 1017.6 |
| 20260508050031 | 61 | 279 | 6.1 | 13.9 | 0.00 | 0.00 | 0.00 | 42 | 1017.5 |
| 20260508044532 | 61 | 272 | 5.2 | 13.0 | 0.00 | 0.00 | 0.00 | 42 | 1017.6 |
| 20260508043034 | 62 | 269 | 5.2 | 11.3 | 0.00 | 0.00 | 0.00 | 42 | 1017.4 |
| 20260508040032 | 62 | 275 | 5.2 | 13.9 | 0.00 | 0.00 | 0.00 | 40 | 1017.2 |
| 20260508033032 | 62 | 290 | 4.3 | 9.6 | 0.00 | 0.00 | 0.00 | 36 | 1017.0 |
| 20260508031610 | 63 | 291 | 2.6 | 7.0 | 0.00 | 0.00 | 0.00 | 33 | 1016.9 |
| 20260508024535 | 65 | 302 | 5.2 | 13.0 | 0.00 | 0.00 | 0.00 | 30 | 1016.8 |
| 20260508023033 | 66 | 299 | 6.1 | 13.0 | 0.00 | 0.00 | 0.00 | 29 | 1016.6 |
| 20260508021528 | 66 | 298 | 5.2 | 11.3 | 0.00 | 0.00 | 0.00 | 29 | 1016.5 |
| 20260508020035 | 67 | 296 | 6.1 | 16.5 | 0.00 | 0.00 | 0.00 | 28 | 1016.5 |
| 20260508013031 | 70 | 301 | 7.0 | 14.8 | 0.00 | 0.00 | 0.00 | 25 | 1016.5 |
| 20260508011535 | 71 | 289 | 6.1 | 14.8 | 0.00 | 0.00 | 0.00 | 25 | 1016.7 |
| 20260508010036 | 70 | 296 | 6.1 | 15.6 | 0.00 | 0.00 | 0.00 | 25 | 1016.7 |
| 20260508004530 | 70 | 291 | 6.1 | 15.6 | 0.00 | 0.00 | 0.00 | 24 | 1016.7 |
| 20260508003035 | 71 | 292 | 6.1 | 15.6 | 0.00 | 0.00 | 0.00 | 24 | 1016.7 |
| 20260508001536 | 71 | 291 | 7.0 | 13.9 | 0.00 | 0.00 | 0.00 | 23 | 1016.7 |
| 20260507234531 | 71 | 284 | 7.8 | 18.2 | 0.00 | 0.00 | 0.00 | 23 | 1016.6 |
| 20260507231610 | 70 | 284 | 8.7 | 20.9 | 0.00 | 0.00 | 0.00 | 25 | 1016.8 |
| 20260507230034 | 71 | 282 | 7.8 | 16.5 | 0.00 | 0.00 | 0.00 | 26 | 1016.9 |
| 20260507224529 | 71 | 290 | 7.0 | 19.1 | 0.00 | 0.00 | 0.00 | 29 | 1017.0 |
| 20260507223031 | 71 | 283 | 7.8 | 20.9 | 0.00 | 0.00 | 0.00 | 31 | 1017.0 |
| 20260507220108 | 70 | 284 | 6.1 | 15.6 | 0.00 | 0.00 | 0.00 | 34 | 1017.6 |
| 20260507214610 | 69 | 277 | 7.0 | 20.9 | 0.00 | 0.00 | 0.00 | 35 | 1017.8 |
| 20260507213112 | 69 | 268 | 6.1 | 15.6 | 0.00 | 0.00 | 0.00 | 36 | 1017.9 |
| 20260507210035 | 69 | 290 | 7.8 | 19.1 | 0.00 | 0.00 | 0.00 | 38 | 1017.9 |
| 20260507204536 | 69 | 290 | 7.8 | 20.9 | 0.00 | 0.00 | 0.00 | 39 | 1018.0 |
| 20260507203034 | 68 | 291 | 9.6 | 20.0 | 0.00 | 0.00 | 0.00 | 39 | 1018.0 |
| 20260507201532 | 68 | 293 | 8.7 | 20.9 | 0.00 | 0.00 | 0.00 | 40 | 1018.3 |
| 20260507200036 | 68 | 296 | 8.7 | 20.0 | 0.00 | 0.00 | 0.00 | 41 | 1018.4 |
| 20260507194532 | 67 | 294 | 9.6 | 20.0 | 0.00 | 0.00 | 0.00 | 42 | 1018.6 |
| 20260507191529 | 66 | 302 | 9.6 | 25.2 | 0.00 | 0.00 | 0.00 | 48 | 1019.0 |
| 20260507190034 | 66 | 296 | 7.8 | 18.2 | 0.00 | 0.00 | 0.00 | 48 | 1019.5 |
| 20260507184610 | 67 | 277 | 7.0 | 16.5 | 0.00 | 0.00 | 0.00 | 48 | 1019.8 |
| 20260507181534 | 65 | 307 | 3.5 | 12.2 | 0.00 | 0.00 | 0.00 | 54 | 1020.0 |
| 20260507180031 | 63 | 289 | 5.2 | 12.2 | 0.00 | 0.00 | 0.00 | 55 | 1020.0 |
| 20260507173035 | 61 | 271 | 7.8 | 21.7 | 0.00 | 0.00 | 0.00 | 58 | 1020.0 |
| 20260507170035 | 59 | 266 | 8.7 | 20.0 | 0.00 | 0.00 | 0.00 | 61 | 1020.3 |
| 20260507164533 | 58 | 276 | 8.7 | 19.1 | 0.00 | 0.00 | 0.00 | 63 | 1020.4 |
| 20260507163110 | 58 | 283 | 7.8 | 21.7 | 0.00 | 0.00 | 0.00 | 64 | 1020.6 |
| 20260507161534 | 57 | 279 | 7.8 | 18.2 | 0.00 | 0.00 | 0.00 | 66 | 1020.7 |
| 20260507154609 | 56 | 285 | 7.8 | 20.0 | 0.00 | 0.00 | 0.00 | 70 | 1020.8 |
| 20260507153036 | 56 | 287 | 7.8 | 18.2 | 0.00 | 0.00 | 0.00 | 71 | 1020.8 |
| 20260507151534 | 55 | 296 | 7.8 | 20.9 | 0.00 | 0.00 | 0.00 | 74 | 1020.9 |
| 20260507150043 | 54 | 295 | 6.1 | 15.6 | 0.00 | 0.00 | 0.00 | 75 | 1021.0 |
| 20260507143033 | 52 | 294 | 5.2 | 13.9 | 0.00 | 0.00 | 0.00 | 80 | 1021.1 |
| 20260507141532 | 51 | 292 | 6.1 | 13.0 | 0.00 | 0.00 | 0.00 | 81 | 1021.0 |
| 20260507140110 | 51 | 307 | 6.1 | 16.5 | 0.00 | 0.00 | 0.00 | 81 | 1020.7 |
| 20260507134658 | 51 | 288 | 6.1 | 13.9 | 0.00 | 0.00 | 0.00 | 81 | 1020.4 |
| 20260507133033 | 51 | 290 | 7.0 | 16.5 | 0.00 | 0.00 | 0.00 | 81 | 1020.2 |
| 20260507131536 | 51 | 288 | 5.2 | 14.8 | 0.00 | 0.00 | 0.00 | 80 | 1020.2 |
| 20260507130036 | 52 | 290 | 5.2 | 12.2 | 0.00 | 0.00 | 0.00 | 80 | 1020.1 |
| 20260507124535 | 52 | 280 | 5.2 | 11.3 | 0.00 | 0.00 | 0.00 | 79 | 1020.1 |
| 20260507123034 | 52 | 271 | 6.1 | 14.8 | 0.00 | 0.00 | 0.00 | 79 | 1020.2 |
| 20260507121536 | 53 | 279 | 6.1 | 14.8 | 0.00 | 0.00 | 0.00 | 79 | 1020.3 |
| 20260507120032 | 53 | 274 | 5.2 | 12.2 | 0.00 | 0.00 | 0.00 | 79 | 1020.2 |
| 20260507114539 | 53 | 283 | 4.3 | 12.2 | 0.00 | 0.00 | 0.00 | 78 | 1020.2 |
| 20260507113035 | 53 | 269 | 5.2 | 13.0 | 0.00 | 0.00 | 0.00 | 78 | 1020.2 |
| 20260507111530 | 54 | 266 | 7.0 | 16.5 | 0.00 | 0.00 | 0.00 | 78 | 1020.1 |